TimeCST,TemperatureF,Dew PointF,Humidity,Sea Level PressureIn,VisibilityMPH,Wind Direction,Wind SpeedMPH,Gust SpeedMPH,PrecipitationIn,Events,Conditions,WindDirDegrees,DateUTC
12:15 AM,23.7,18.3,80,30.14,10.0,North,6.9,-,N/A,,Overcast,10,2013-03-06 06:15:00
12:35 AM,23.9,18.1,79,30.14,10.0,North,8.1,-,N/A,,Overcast,360,2013-03-06 06:35:00
12:55 AM,23.9,18.3,79,30.15,10.0,North,8.1,-,N/A,,Overcast,360,2013-03-06 06:55:00
1:15 AM,23.5,18.3,80,30.16,10.0,North,8.1,-,N/A,,Overcast,360,2013-03-06 07:15:00
1:35 AM,23.5,18.5,81,30.16,10.0,North,8.1,-,N/A,,Overcast,350,2013-03-06 07:35:00
2:15 AM,23.0,17.6,80,30.16,10.0,North,8.1,-,N/A,,Overcast,360,2013-03-06 08:15:00
2:35 AM,22.8,18.5,83,30.16,10.0,North,8.1,-,N/A,,Overcast,360,2013-03-06 08:35:00
2:55 AM,22.5,18.5,85,30.17,10.0,North,9.2,-,N/A,,Overcast,360,2013-03-06 08:55:00
3:15 AM,22.1,18.3,85,30.18,10.0,NNW,6.9,-,N/A,,Overcast,340,2013-03-06 09:15:00
3:35 AM,22.1,18.3,85,30.18,10.0,NNW,6.9,-,N/A,,Overcast,340,2013-03-06 09:35:00
3:55 AM,21.9,18.3,86,30.18,10.0,North,4.6,-,N/A,,Overcast,360,2013-03-06 09:55:00
4:15 AM,21.2,18.0,87,30.18,10.0,NW,4.6,-,N/A,,Mostly Cloudy,310,2013-03-06 10:15:00
4:35 AM,21.6,18.3,87,30.19,10.0,NW,5.8,-,N/A,,Mostly Cloudy,310,2013-03-06 10:35:00
4:55 AM,21.7,18.3,87,30.20,10.0,NW,5.8,-,N/A,,Overcast,320,2013-03-06 10:55:00
5:15 AM,22.1,18.5,86,30.21,10.0,NW,6.9,-,N/A,,Overcast,310,2013-03-06 11:15:00
5:35 AM,22.1,18.3,85,30.22,10.0,NW,6.9,-,N/A,,Overcast,320,2013-03-06 11:35:00
5:55 AM,22.1,18.5,86,30.22,10.0,NW,6.9,-,N/A,,Overcast,320,2013-03-06 11:55:00
6:15 AM,22.5,18.5,85,30.22,10.0,NW,6.9,-,N/A,,Overcast,320,2013-03-06 12:15:00
6:35 AM,22.6,18.5,84,30.23,10.0,NNW,8.1,-,N/A,,Overcast,330,2013-03-06 12:35:00
6:55 AM,22.6,18.5,84,30.23,10.0,NW,8.1,-,N/A,,Overcast,320,2013-03-06 12:55:00
7:15 AM,23.0,18.7,84,30.23,10.0,NNW,6.9,-,N/A,,Overcast,340,2013-03-06 13:15:00
7:35 AM,23.4,18.9,83,30.23,10.0,NNW,5.8,-,N/A,,Overcast,330,2013-03-06 13:35:00
7:55 AM,23.7,19.0,82,30.24,10.0,NNW,6.9,-,N/A,,Overcast,340,2013-03-06 13:55:00
8:15 AM,23.9,19.0,82,30.25,10.0,NNW,9.2,-,N/A,,Overcast,330,2013-03-06 14:15:00
8:35 AM,23.9,19.0,82,30.26,10.0,NW,6.9,-,N/A,,Overcast,310,2013-03-06 14:35:00
8:55 AM,23.9,19.2,82,30.26,10.0,NW,9.2,-,N/A,,Overcast,320,2013-03-06 14:55:00
9:15 AM,24.3,19.2,81,30.26,10.0,NW,9.2,-,N/A,,Overcast,320,2013-03-06 15:15:00
9:35 AM,24.4,19.0,80,30.27,10.0,NW,5.8,-,N/A,,Overcast,320,2013-03-06 15:35:00
9:55 AM,24.6,18.5,78,30.27,10.0,NNW,6.9,-,N/A,,Overcast,330,2013-03-06 15:55:00
10:15 AM,24.8,18.7,78,30.27,10.0,NNW,8.1,-,N/A,,Overcast,330,2013-03-06 16:15:00
10:35 AM,25.5,18.5,75,30.27,10.0,NW,10.4,-,N/A,,Overcast,310,2013-03-06 16:35:00
10:55 AM,26.4,18.7,73,30.27,10.0,NNW,10.4,-,N/A,,Overcast,330,2013-03-06 16:55:00
11:15 AM,26.6,19.0,73,30.27,10.0,NW,10.4,-,N/A,,Overcast,320,2013-03-06 17:15:00
11:35 AM,27.0,19.0,72,30.27,10.0,NW,6.9,-,N/A,,Overcast,310,2013-03-06 17:35:00
11:55 AM,27.7,19.4,71,30.26,10.0,NW,6.9,-,N/A,,Overcast,320,2013-03-06 17:55:00
12:15 PM,28.2,19.8,71,30.26,10.0,NNW,8.1,-,N/A,,Overcast,340,2013-03-06 18:15:00
12:35 PM,28.6,19.8,70,30.26,10.0,NW,8.1,-,N/A,,Overcast,320,2013-03-06 18:35:00
12:55 PM,28.4,19.9,71,30.25,10.0,NNW,9.2,-,N/A,,Overcast,330,2013-03-06 18:55:00
1:15 PM,28.8,20.1,70,30.25,10.0,NNW,6.9,-,N/A,,Overcast,330,2013-03-06 19:15:00
1:35 PM,28.8,20.1,70,30.25,10.0,NNW,8.1,-,N/A,,Overcast,330,2013-03-06 19:35:00
1:55 PM,28.9,19.9,69,30.25,10.0,NW,6.9,-,N/A,,Overcast,310,2013-03-06 19:55:00
2:15 PM,29.1,19.4,67,30.25,10.0,WNW,8.1,-,N/A,,Overcast,300,2013-03-06 20:15:00
2:35 PM,29.3,19.2,66,30.25,10.0,WNW,8.1,-,N/A,,Overcast,300,2013-03-06 20:35:00
3:15 PM,29.3,18.5,64,30.25,10.0,WNW,3.5,-,N/A,,Overcast,290,2013-03-06 21:15:00
3:35 PM,29.7,18.0,62,30.25,10.0,West,5.8,-,N/A,,Overcast,280,2013-03-06 21:35:00
3:55 PM,30.0,17.6,60,30.25,10.0,West,6.9,-,N/A,,Overcast,280,2013-03-06 21:55:00
4:15 PM,29.8,17.2,59,30.25,10.0,WNW,6.9,-,N/A,,Overcast,290,2013-03-06 22:15:00
4:35 PM,30.0,17.2,59,30.25,10.0,WNW,4.6,-,N/A,,Overcast,300,2013-03-06 22:35:00
4:55 PM,29.8,17.2,59,30.25,10.0,West,9.2,-,N/A,,Overcast,260,2013-03-06 22:55:00
5:15 PM,28.2,16.3,61,30.25,10.0,WSW,8.1,-,N/A,,Mostly Cloudy,250,2013-03-06 23:15:00
5:35 PM,27.3,16.0,62,30.25,10.0,West,6.9,-,N/A,,Scattered Clouds,260,2013-03-06 23:35:00
5:55 PM,26.1,15.6,65,30.26,10.0,West,5.8,-,N/A,,Clear,260,2013-03-06 23:55:00
6:15 PM,25.5,14.9,64,30.26,10.0,West,4.6,-,N/A,,Clear,280,2013-03-07 00:15:00
6:35 PM,24.8,14.9,66,30.26,10.0,West,4.6,-,N/A,,Clear,280,2013-03-07 00:35:00
6:55 PM,24.4,14.4,66,30.27,10.0,West,4.6,-,N/A,,Clear,270,2013-03-07 00:55:00
7:15 PM,23.5,14.2,67,30.28,10.0,West,4.6,-,N/A,,Clear,260,2013-03-07 01:15:00
7:35 PM,23.0,14.0,68,30.28,10.0,Calm,Calm,-,N/A,,Clear,0,2013-03-07 01:35:00
7:55 PM,21.7,13.6,71,30.28,10.0,Calm,Calm,-,N/A,,Clear,0,2013-03-07 01:55:00
8:15 PM,16.2,12.0,84,30.28,10.0,Calm,Calm,-,N/A,,Clear,0,2013-03-07 02:15:00
8:35 PM,19.8,13.3,76,30.29,10.0,Calm,Calm,-,N/A,,Clear,0,2013-03-07 02:35:00
8:55 PM,18.1,11.8,76,30.28,10.0,Calm,Calm,-,N/A,,Clear,0,2013-03-07 02:55:00
9:15 PM,18.3,11.5,75,30.28,10.0,Calm,Calm,-,N/A,,Clear,0,2013-03-07 03:15:00
9:35 PM,19.9,12.4,72,30.28,10.0,NW,3.5,-,N/A,,Clear,310,2013-03-07 03:35:00
9:55 PM,20.1,11.7,70,30.28,10.0,WNW,4.6,-,N/A,,Clear,290,2013-03-07 03:55:00
10:15 PM,19.4,11.3,71,30.28,10.0,NW,3.5,-,N/A,,Clear,310,2013-03-07 04:15:00
10:35 PM,15.4,9.0,76,30.28,10.0,Calm,Calm,-,N/A,,Clear,0,2013-03-07 04:35:00
10:55 PM,10.2,6.6,85,30.28,10.0,Calm,Calm,-,N/A,,Clear,0,2013-03-07 04:55:00
11:15 PM,11.1,8.2,88,30.28,10.0,Calm,Calm,-,N/A,,Clear,0,2013-03-07 05:15:00
11:35 PM,10.4,7.3,87,30.28,10.0,Calm,Calm,-,N/A,,Clear,0,2013-03-07 05:35:00
11:55 PM,9.1,7.7,94,30.29,10.0,Calm,Calm,-,N/A,,Clear,0,2013-03-07 05:55:00